OK1FRN-6 Weather Reports


Display with metric or nautical units.
time (UTC)temp
F
wind
direction
speed
MPH
gust
MPH
rain 1hr
in
rain 24hr
in
rain mn
in
humidity
%
barometer
mb
20260503182042 72 78 1.0 2.0 0.00 0.00 0.00 31 1013.0
20260503181028 73 87 2.0 4.0 0.00 0.00 0.00 30 1012.8
20260503180521 73 70 1.0 3.0 0.00 0.00 0.00 29 1012.8
20260503180014 73 70 1.0 3.0 0.00 0.00 0.00 29 1012.7
20260503175508 74 78 1.0 3.0 0.00 0.00 0.00 28 1012.8
20260503174453 75 60 1.0 2.0 0.00 0.00 0.00 26 1012.6
20260503173947 75 77 1.0 2.0 0.00 0.00 0.00 26 1012.6
20260503173439 75 100 2.0 3.0 0.00 0.00 0.00 25 1012.6
20260503172932 76 85 2.0 5.0 0.00 0.00 0.00 25 1012.6
20260503171918 77 65 2.0 5.0 0.00 0.00 0.00 23 1012.5
20260503171411 77 97 2.0 3.0 0.00 0.00 0.00 23 1012.5
20260503170356 78 81 1.0 4.0 0.00 0.00 0.00 22 1012.5
20260503150607 83 89 2.0 5.0 0.00 0.00 0.00 19 1013.1
20260503130813 85 61 2.0 5.0 0.00 0.00 0.00 19 1014.7
20260503130305 85 35 2.0 4.0 0.00 0.00 0.00 18 1014.8
20260503120134 84 86 3.0 4.0 0.00 0.00 0.00 21 1015.4
20260503110510 84 114 3.0 5.0 0.00 0.00 0.00 21 1016.3
20260503090210 80 148 2.0 4.0 0.00 0.00 0.00 25 1017.6
20260503081605 77 97 2.0 5.0 0.00 0.00 0.00 27 1018.0
20260503081058 77 232 2.0 3.0 0.00 0.00 0.00 28 1018.0
20260503080551 76 298 2.0 5.0 0.00 0.00 0.00 29 1018.0
20260503072455 73 117 1.0 3.0 0.00 0.00 0.00 33 1018.1
20260503071441 72 83 1.0 2.0 0.00 0.00 0.00 34 1018.2
20260503070934 71 193 1.0 2.0 0.00 0.00 0.00 36 1018.3
20260503070427 70 83 1.0 3.0 0.00 0.00 0.00 37 1018.3
20260503060311 55 75 0.0 0.0 0.00 0.00 0.00 57 1018.4
20260503054753 51 71 0.0 0.0 0.00 0.00 0.00 61 1018.4
20260503054247 50 85 0.0 0.0 0.00 0.00 0.00 61 1018.4
20260503053741 50 74 0.0 0.0 0.00 0.00 0.00 62 1018.4
20260503053236 49 90 0.0 0.0 0.00 0.00 0.00 64 1018.4
20260503052730 47 90 0.0 0.0 0.00 0.00 0.00 66 1018.4
20260503052224 46 90 0.0 0.0 0.00 0.00 0.00 67 1018.4
20260503051719 44 221 0.0 0.0 0.00 0.00 0.00 69 1018.4
20260503051213 43 225 0.0 0.0 0.00 0.00 0.00 69 1018.5
20260503050708 41 225 0.0 0.0 0.00 0.00 0.00 69 1018.5
20260503050202 41 225 0.0 0.0 0.00 0.00 0.00 68 1018.5
20260503045657 40 225 0.0 0.0 0.00 0.00 0.00 68 1018.6
20260503045151 39 225 0.0 0.0 0.00 0.00 0.00 68 1018.5
20260503044646 39 225 0.0 0.0 0.00 0.00 0.00 68 1018.5
20260503044141 39 225 0.0 0.0 0.00 0.00 0.00 68 1018.5
20260503043130 38 225 0.0 0.0 0.00 0.00 0.00 68 1018.5
20260503042624 38 225 0.0 0.0 0.00 0.00 0.00 67 1018.5
20260503042119 38 225 0.0 0.0 0.00 0.00 0.00 67 1018.5
20260503041614 38 225 0.0 0.0 0.00 0.00 0.00 67 1018.4
20260503041108 38 225 0.0 0.0 0.00 0.00 0.00 67 1018.4
20260503040603 38 225 0.0 0.0 0.00 0.00 0.00 66 1018.5
20260503040057 38 225 0.0 0.0 0.00 0.00 0.00 66 1018.4
20260503035552 38 225 0.0 0.0 0.00 0.00 0.00 66 1018.3
20260503034541 38 225 0.0 0.0 0.00 0.00 0.00 65 1018.3
20260503033530 38 225 0.0 0.0 0.00 0.00 0.00 65 1018.3
20260503033025 38 225 0.0 0.0 0.00 0.00 0.00 65 1018.3
20260503032520 38 225 0.0 0.0 0.00 0.00 0.00 64 1018.4
20260503032014 38 225 0.0 0.0 0.00 0.00 0.00 64 1018.3
20260503031510 38 225 0.0 0.0 0.00 0.00 0.00 64 1018.3
20260503030458 39 225 0.0 0.0 0.00 0.00 0.00 64 1018.3
20260503025953 39 225 0.0 0.0 0.00 0.00 0.00 63 1018.3
20260503025447 39 225 0.0 0.0 0.00 0.00 0.00 63 1018.3
20260503024942 40 225 0.0 0.0 0.00 0.00 0.00 62 1018.4
20260503024436 40 225 0.0 0.0 0.00 0.00 0.00 62 1018.4
20260503023931 40 225 0.0 0.0 0.00 0.00 0.00 62 1018.4
20260503023425 40 225 0.0 0.0 0.00 0.00 0.00 62 1018.4
20260503022920 40 225 0.0 0.0 0.00 0.00 0.00 62 1018.4
20260503022415 40 225 0.0 0.0 0.00 0.00 0.00 62 1018.5
20260503021909 40 225 0.0 0.0 0.00 0.00 0.00 62 1018.4
20260503021404 40 225 0.0 0.0 0.00 0.00 0.00 62 1018.5
20260503020858 40 225 0.0 0.0 0.00 0.00 0.00 61 1018.5
20260503020353 40 225 0.0 0.0 0.00 0.00 0.00 61 1018.5
20260503015847 40 225 0.0 0.0 0.00 0.00 0.00 61 1018.6
20260503015342 41 225 0.0 0.0 0.00 0.00 0.00 61 1018.6
20260503014836 41 225 0.0 0.0 0.00 0.00 0.00 61 1018.6
20260503014331 41 225 0.0 0.0 0.00 0.00 0.00 60 1018.5
20260503013825 41 225 0.0 0.0 0.00 0.00 0.00 60 1018.5
20260503013320 41 225 0.0 0.0 0.00 0.00 0.00 60 1018.5
20260503012814 41 225 0.0 0.0 0.00 0.00 0.00 60 1018.5
20260503012309 41 225 0.0 0.0 0.00 0.00 0.00 60 1018.5
20260503011803 41 225 0.0 0.0 0.00 0.00 0.00 59 1018.5
20260503011258 41 225 0.0 0.0 0.00 0.00 0.00 59 1018.6
20260503010752 41 225 0.0 0.0 0.00 0.00 0.00 59 1018.6
20260503010247 42 225 0.0 0.0 0.00 0.00 0.00 59 1018.6
20260503005741 42 225 0.0 0.0 0.00 0.00 0.00 58 1018.7
20260503005236 42 225 0.0 0.0 0.00 0.00 0.00 58 1018.7
20260503004730 42 225 0.0 0.0 0.00 0.00 0.00 58 1018.7
20260503004225 42 225 0.0 0.0 0.00 0.00 0.00 57 1018.8
20260503003719 43 252 0.0 0.0 0.00 0.00 0.00 57 1018.8
20260503003214 43 263 0.0 0.0 0.00 0.00 0.00 56 1018.8
20260503002203 44 288 0.0 0.0 0.00 0.00 0.00 55 1018.8
20260503001657 44 306 0.0 0.0 0.00 0.00 0.00 55 1018.9
20260503001152 44 315 0.0 0.0 0.00 0.00 0.00 55 1018.9
20260503000646 44 306 0.0 0.0 0.00 0.00 0.00 54 1018.9
20260503000140 45 315 0.0 0.0 0.00 0.00 0.00 54 1019.0
20260502235635 45 315 0.0 0.0 0.00 0.00 0.00 54 1019.1
20260502235129 45 315 0.0 0.0 0.00 0.00 0.00 54 1019.1
20260502234118 45 315 0.0 0.0 0.00 0.00 0.00 54 1019.1
20260502233613 45 311 0.0 0.0 0.00 0.00 0.00 53 1019.1
20260502233106 46 293 0.0 0.0 0.00 0.00 0.00 53 1019.1
20260502232601 46 315 0.0 0.0 0.00 0.00 0.00 53 1019.2
20260502232055 46 315 0.0 0.0 0.00 0.00 0.00 53 1019.2
20260502231549 46 315 0.0 0.0 0.00 0.00 0.00 52 1019.2
20260502231044 46 315 0.0 0.0 0.00 0.00 0.00 52 1019.3
20260502230538 47 315 0.0 0.0 0.00 0.00 0.00 52 1019.2
20260502230032 47 312 0.0 0.0 0.00 0.00 0.00 51 1019.2
20260502225527 47 315 0.0 0.0 0.00 0.00 0.00 51 1019.3
20260502224515 48 315 0.0 0.0 0.00 0.00 0.00 51 1019.2
20260502224009 48 315 0.0 0.0 0.00 0.00 0.00 50 1019.3
20260502223504 48 315 0.0 0.0 0.00 0.00 0.00 50 1019.4
20260502222452 48 315 0.0 0.0 0.00 0.00 0.00 49 1019.4
20260502221947 49 315 0.0 0.0 0.00 0.00 0.00 49 1019.4
20260502221441 49 315 0.0 0.0 0.00 0.00 0.00 48 1019.4
20260502220935 49 312 0.0 0.0 0.00 0.00 0.00 48 1019.4
20260502220429 49 322 0.0 0.0 0.00 0.00 0.00 48 1019.4
20260502215923 50 315 0.0 0.0 0.00 0.00 0.00 47 1019.4
20260502215418 50 315 0.0 0.0 0.00 0.00 0.00 47 1019.4
20260502214912 50 305 0.0 0.0 0.00 0.00 0.00 47 1019.4
20260502214406 50 311 0.0 0.0 0.00 0.00 0.00 46 1019.3
20260502213900 51 315 0.0 0.0 0.00 0.00 0.00 46 1019.3
20260502213354 51 315 0.0 0.0 0.00 0.00 0.00 45 1019.4
20260502212849 51 315 0.0 0.0 0.00 0.00 0.00 45 1019.3
20260502212343 51 305 0.0 0.0 0.00 0.00 0.00 45 1019.4
20260502211837 51 319 0.0 0.0 0.00 0.00 0.00 44 1019.4
20260502211331 52 316 0.0 0.0 0.00 0.00 0.00 44 1019.4
20260502210825 52 319 0.0 0.0 0.00 0.00 0.00 43 1019.4
20260502210319 52 325 0.0 0.0 0.00 0.00 0.00 43 1019.4
20260502205813 53 315 0.0 0.0 0.00 0.00 0.00 42 1019.4
20260502205307 53 309 0.0 0.0 0.00 0.00 0.00 42 1019.4
20260502204801 54 315 0.0 0.0 0.00 0.00 0.00 41 1019.3
20260502204255 54 312 0.0 0.0 0.00 0.00 0.00 41 1019.3
20260502203749 54 306 0.0 0.0 0.00 0.00 0.00 40 1019.3
20260502202737 55 0 0.0 0.0 0.00 0.00 0.00 39 1019.5
20260502201725 56 0 0.0 0.0 0.00 0.00 0.00 38 1019.5
20260502201219 56 0 0.0 0.0 0.00 0.00 0.00 38 1019.5
20260502200713 57 0 0.0 0.0 0.00 0.00 0.00 37 1019.5
20260502195701 58 0 0.0 0.0 0.00 0.00 0.00 37 1019.4
20260502195155 58 0 0.0 0.0 0.00 0.00 0.00 36 1019.4
20260502194142 59 0 0.0 0.0 0.00 0.00 0.00 35 1019.4
20260502193637 59 0 0.0 0.0 0.00 0.00 0.00 35 1019.4
20260502193130 60 0 0.0 0.0 0.00 0.00 0.00 34 1019.3
20260502192624 60 0 0.0 0.0 0.00 0.00 0.00 34 1019.3
20260502192118 61 0 0.0 0.0 0.00 0.00 0.00 33 1019.3
20260502191611 62 0 0.0 0.0 0.00 0.00 0.00 33 1019.2
20260502191105 62 0 0.0 0.0 0.00 0.00 0.00 33 1019.2
20260502190559 63 0 0.0 0.0 0.00 0.00 0.00 32 1019.2
20260502185546 64 0 0.0 0.0 0.00 0.00 0.00 32 1019.2
20260502185040 64 0 0.0 0.0 0.00 0.00 0.00 31 1019.2
20260502184533 65 0 0.0 0.0 0.00 0.00 0.00 31 1019.2
20260502184027 66 0 0.0 0.0 0.00 0.00 0.00 30 1019.2
20260502183520 66 0 0.0 0.0 0.00 0.00 0.00 30 1019.1
20260502183014 67 0 0.0 0.0 0.00 0.00 0.00 29 1019.1